FW1018 Weather Reports


Display with metric or nautical units.
time (UTC)temp
F
wind
direction
speed
MPH
gust
MPH
rain 1hr
in
rain 24hr
in
rain mn
in
humidity
%
barometer
mb
20260906140119 68 215 4.0 8.0 0.00 0.00 0.00 94 1015.0
20260906134619 68 215 6.0 7.0 0.00 0.00 0.00 95 1015.2
20260906134118 66 214 4.0 4.0 0.00 0.00 0.00 97 1015.0
20260906133618 66 214 4.0 4.0 0.00 0.00 0.00 97 1015.0
20260906133118 66 214 4.0 4.0 0.00 0.00 0.00 97 1015.1
20260906132618 66 214 4.0 4.0 0.00 0.00 0.00 97 1014.8
20260906132118 66 214 4.0 4.0 0.00 0.00 0.00 97 1015.0
20260906131618 66 214 4.0 4.0 0.00 0.00 0.00 97 1015.1
20260906131118 66 214 4.0 4.0 0.00 0.00 0.00 97 1015.1
20260906130118 66 214 4.0 4.0 0.00 0.00 0.00 97 1014.8
20260906125117 66 214 4.0 4.0 0.00 0.00 0.00 97 1015.0
20260906124118 66 214 4.0 4.0 0.00 0.00 0.00 97 1014.5
20260906123117 66 214 4.0 4.0 0.00 0.00 0.00 97 1014.3
20260906122618 66 214 4.0 4.0 0.00 0.00 0.00 97 1014.4
20260906122117 66 214 4.0 4.0 0.00 0.00 0.00 97 1014.2
20260906121617 66 214 4.0 4.0 0.00 0.00 0.00 97 1014.1
20260906121117 66 214 4.0 4.0 0.00 0.00 0.00 97 1014.0
20260906120617 66 214 4.0 4.0 0.00 0.00 0.00 97 1013.9
20260906120117 66 214 4.0 4.0 0.00 0.00 0.00 97 1014.0
20260906115117 66 214 4.0 4.0 0.00 0.00 0.00 97 1013.8
20260906114617 66 214 4.0 4.0 0.00 0.00 0.00 97 1013.9
20260906114117 66 214 4.0 4.0 0.00 0.00 0.00 97 1013.8
20260906113617 66 214 4.0 4.0 0.00 0.00 0.00 97 1013.7
20260906113117 66 214 4.0 4.0 0.00 0.00 0.00 97 1013.7
20260906112617 66 214 4.0 4.0 0.00 0.00 0.00 97 1013.7
20260906112117 66 214 4.0 4.0 0.00 0.00 0.00 97 1013.7
20260906111617 66 214 4.0 4.0 0.00 0.00 0.00 97 1013.5
20260906111116 66 214 4.0 4.0 0.00 0.00 0.00 97 1013.5
20260906110616 66 214 4.0 4.0 0.00 0.00 0.00 97 1013.4
20260906105116 66 214 4.0 8.0 0.00 0.00 0.00 97 1013.2
20260906104616 66 214 4.0 8.0 0.00 0.00 0.00 97 1013.0
20260906103616 65 215 5.0 7.0 0.00 0.00 0.00 97 1013.0
20260906103116 65 215 4.0 6.0 0.00 0.00 0.00 97 1013.0
20260906102616 66 215 3.0 6.0 0.00 0.00 0.00 97 1013.2
20260906101616 66 215 2.0 5.0 0.00 0.00 0.00 96 1013.2
20260906101116 66 215 2.0 6.0 0.00 0.00 0.00 96 1013.0
20260906100616 66 215 3.0 8.0 0.00 0.00 0.00 96 1013.2
20260906100116 66 215 2.0 8.0 0.00 0.00 0.00 96 1013.0
20260906095616 66 215 3.0 6.0 0.00 0.00 0.00 96 1013.2
20260906095115 66 215 2.0 6.0 0.00 0.00 0.00 96 1013.1
20260906094615 66 215 3.0 5.0 0.00 0.00 0.00 96 1013.0
20260906094115 66 215 3.0 4.0 0.00 0.00 0.00 96 1013.0
20260906093615 66 215 4.0 5.0 0.00 0.00 0.00 96 1013.0
20260906093115 66 215 1.0 5.0 0.00 0.00 0.00 96 1013.0
20260906092615 66 215 4.0 5.0 0.00 0.00 0.00 96 1012.9
20260906091615 66 215 4.0 8.0 0.00 0.00 0.00 96 1012.8
20260906091115 66 215 5.0 6.0 0.00 0.00 0.00 96 1012.9
20260906090615 67 215 3.0 6.0 0.00 0.00 0.00 96 1012.9
20260906090115 67 215 3.0 5.0 0.00 0.00 0.00 96 1012.9
20260906085615 67 215 4.0 6.0 0.00 0.00 0.00 96 1013.0
20260906085115 67 215 1.0 6.0 0.00 0.00 0.00 96 1013.0
20260906084615 67 215 3.0 6.0 0.00 0.00 0.00 96 1013.0
20260906084115 67 215 2.0 6.0 0.00 0.00 0.00 96 1013.0
20260906083615 67 215 3.0 6.0 0.00 0.00 0.00 96 1013.0
20260906082614 67 215 2.0 5.0 0.00 0.00 0.00 96 1013.1
20260906082114 67 215 3.0 5.0 0.00 0.00 0.00 96 1013.1
20260906081614 67 215 3.0 5.0 0.00 0.00 0.00 96 1013.1
20260906081115 67 215 1.0 3.0 0.00 0.00 0.00 95 1013.1
20260906080615 67 215 2.0 4.0 0.00 0.00 0.00 95 1013.1
20260906075614 67 215 1.0 7.0 0.00 0.00 0.00 95 1013.0
20260906074614 68 215 4.0 6.0 0.00 0.00 0.00 95 1013.1
20260906074114 68 215 2.0 6.0 0.00 0.00 0.00 95 1013.1
20260906073614 68 215 3.0 6.0 0.00 0.00 0.00 95 1013.1
20260906073114 68 215 3.0 6.0 0.00 0.00 0.00 95 1013.0
20260906072114 68 215 1.0 3.0 0.00 0.00 0.00 95 1013.4
20260906071614 68 215 1.0 4.0 0.00 0.00 0.00 95 1013.4
20260906070614 68 215 0.0 6.0 0.00 0.00 0.00 95 1013.4
20260906070114 68 215 3.0 4.0 0.00 0.00 0.00 94 1013.5
20260906065614 68 215 3.0 4.0 0.00 0.00 0.00 94 1013.6
20260906065114 68 215 1.0 3.0 0.00 0.00 0.00 94 1013.8
20260906064614 68 215 2.0 3.0 0.00 0.00 0.00 94 1013.7
20260906064114 69 215 0.0 4.0 0.00 0.00 0.00 94 1013.9
20260906063614 69 215 2.0 4.0 0.00 0.00 0.00 94 1013.8
20260906063113 69 215 0.0 4.0 0.00 0.00 0.00 93 1013.8
20260906062113 69 215 1.0 4.0 0.00 0.00 0.00 93 1013.8
20260906061613 69 215 3.0 4.0 0.00 0.00 0.00 93 1013.6
20260906061114 69 215 1.0 4.0 0.00 0.00 0.00 93 1013.5
20260906060613 70 215 1.0 6.0 0.00 0.00 0.00 92 1013.6
20260906060113 70 215 2.0 6.0 0.00 0.00 0.00 92 1013.5
20260906055613 70 215 3.0 6.0 0.00 0.00 0.00 92 1013.6
20260906054613 70 215 1.0 7.0 0.00 0.00 0.00 92 1013.5
20260906054113 70 215 3.0 7.0 0.00 0.00 0.00 92 1013.4
20260906053613 70 215 4.0 6.0 0.00 0.00 0.00 92 1013.3
20260906052613 70 215 2.0 5.0 0.00 0.00 0.00 92 1013.2
20260906051613 70 215 2.0 6.0 0.00 0.00 0.00 92 1013.0
20260906051113 70 215 3.0 6.0 0.00 0.00 0.00 92 1013.0
20260906050612 70 215 2.0 7.0 0.00 0.00 0.00 92 1013.0
20260906050112 70 215 4.0 7.0 0.00 0.00 0.00 92 1013.0
20260906045612 70 215 4.0 7.0 0.00 0.00 0.00 92 1012.9
20260906045112 70 215 3.0 6.0 0.00 0.00 0.00 92 1012.9
20260906044113 70 215 2.0 8.0 0.00 0.00 0.00 92 1012.8
20260906043612 70 215 3.0 8.0 0.00 0.00 0.00 91 1012.8
20260906043112 70 215 3.0 5.0 0.00 0.00 0.00 91 1012.7
20260906042112 71 215 2.0 8.0 0.00 0.00 0.00 91 1012.6
20260906040612 71 215 0.0 7.0 0.00 0.00 0.00 91 1012.6
20260906035611 71 215 2.0 9.0 0.00 0.00 0.00 91 1012.3
20260906035112 71 215 0.0 10.0 0.00 0.00 0.00 91 1012.3
20260906034112 71 215 4.0 10.0 0.00 0.00 0.00 91 1012.1
20260906033612 71 215 3.0 10.0 0.00 0.00 0.00 90 1012.1
20260906033112 71 215 3.0 12.0 0.00 0.00 0.00 90 1012.1
20260906032611 71 215 1.0 14.0 0.00 0.00 0.00 90 1012.1
20260906031611 71 216 6.0 13.0 0.00 0.00 0.00 90 1011.9
20260906031111 71 216 9.0 12.0 0.00 0.00 0.00 90 1012.0
20260906025611 72 216 4.0 16.0 0.00 0.00 0.00 89 1011.7
20260906025111 72 216 2.0 12.0 0.00 0.00 0.00 89 1011.8
20260906024610 72 216 4.0 12.0 0.00 0.00 0.00 89 1011.6
20260906024110 73 217 8.0 12.0 0.00 0.00 0.00 89 1011.6
20260906023610 73 217 8.0 15.0 0.00 0.00 0.00 88 1011.6
20260906023110 73 217 5.0 15.0 0.00 0.00 0.00 88 1011.4
20260906022610 73 215 11.0 15.0 0.00 0.00 0.00 89 1011.4
20260906022110 74 215 3.0 15.0 0.00 0.00 0.00 89 1011.3
20260906021610 74 214 4.0 14.0 0.00 0.00 0.00 89 1011.4
20260906021110 74 214 5.0 14.0 0.00 0.00 0.00 89 1011.3
20260906020610 74 215 9.0 14.0 0.00 0.00 0.00 89 1011.3
20260906020110 75 214 6.0 12.0 0.00 0.00 0.00 89 1011.3
20260906015610 75 214 5.0 11.0 0.00 0.00 0.00 89 1011.2
20260906014610 75 214 10.0 13.0 0.00 0.00 0.00 88 1011.2
20260906014110 75 214 3.0 12.0 0.00 0.00 0.00 88 1011.2
20260906012610 75 214 2.0 5.0 0.00 0.00 0.00 87 1011.2
20260906012109 75 214 2.0 5.0 0.00 0.00 0.00 87 1011.1
20260906011609 75 214 3.0 5.0 0.00 0.00 0.00 87 1011.0
20260906011110 75 214 3.0 5.0 0.00 0.00 0.00 87 1010.9
20260906010609 75 214 2.0 7.0 0.00 0.00 0.00 87 1010.9
20260906010109 75 214 3.0 7.0 0.00 0.00 0.00 87 1010.8
20260906005610 75 214 2.0 4.0 0.00 0.00 0.00 87 1010.7
20260906005109 75 214 3.0 4.0 0.00 0.00 0.00 87 1010.6
20260906003609 76 214 3.0 4.0 0.00 0.00 0.00 87 1010.8
20260906003109 76 214 2.0 4.0 0.00 0.00 0.00 87 1010.8
20260906002609 76 214 1.0 4.0 0.00 0.00 0.00 86 1010.8
20260906002109 76 214 1.0 6.0 0.00 0.00 0.00 86 1010.6
20260906001609 76 214 1.0 6.0 0.00 0.00 0.00 86 1010.6
20260906001109 77 214 2.0 6.0 0.00 0.00 0.00 86 1010.8
20260906000609 77 214 2.0 6.0 0.00 0.00 0.00 85 1010.8
20260906000109 77 214 1.0 5.0 0.00 0.00 0.00 85 1010.8
20260905235609 77 214 1.0 5.0 0.00 0.00 0.00 85 1010.9
20260905235109 77 214 1.0 5.0 0.00 0.00 0.00 85 1011.0
20260905234608 77 214 3.0 5.0 0.00 0.00 0.00 84 1010.9
20260905234108 78 214 1.0 5.0 0.00 0.00 0.00 84 1011.0
20260905233608 78 214 1.0 5.0 0.00 0.00 0.00 83 1011.1
20260905233108 78 214 1.0 6.0 0.00 0.00 0.00 83 1011.1
20260905232609 78 214 3.0 7.0 0.00 0.00 0.00 83 1011.1
20260905232108 78 214 3.0 7.0 0.00 0.00 0.00 83 1011.0
20260905231608 78 214 4.0 7.0 0.00 0.00 0.00 83 1011.0
20260905231108 78 214 4.0 8.0 0.00 0.00 0.00 82 1010.8
20260905230608 78 214 6.0 8.0 0.00 0.00 0.00 83 1010.8
20260905230108 78 214 1.0 6.0 0.00 0.00 0.00 84 1010.8
20260905225608 78 214 4.0 7.0 0.00 0.00 0.00 84 1011.0
20260905225108 78 214 3.0 7.0 0.00 0.00 0.00 84 1010.9
20260905224608 78 214 5.0 9.0 0.00 0.00 0.00 84 1010.9
20260905224108 79 214 5.0 9.0 0.00 0.00 0.00 84 1011.0
20260905223608 79 214 2.0 10.0 0.00 0.00 0.00 84 1011.0
20260905223108 79 214 4.0 11.0 0.00 0.00 0.00 83 1011.0
20260905222608 79 214 6.0 11.0 0.00 0.00 0.00 83 1010.6
20260905222108 79 214 4.0 10.0 0.00 0.00 0.00 82 1010.6
20260905221607 80 214 4.0 8.0 0.00 0.00 0.00 82 1010.5
20260905221107 80 214 4.0 8.0 0.00 0.00 0.00 83 1010.5
20260905220108 80 214 6.0 11.0 0.00 0.00 0.00 82 1010.6
20260905215607 80 214 4.0 11.0 0.00 0.00 0.00 83 1010.6
20260905215107 80 214 8.0 11.0 0.00 0.00 0.00 82 1010.6
20260905214607 81 214 2.0 11.0 0.00 0.00 0.00 82 1010.4
20260905214107 81 214 6.0 11.0 0.00 0.00 0.00 83 1010.4
20260905213607 81 214 4.0 11.0 0.00 0.00 0.00 82 1010.4
20260905213107 82 214 10.0 11.0 0.00 0.00 0.00 81 1010.4
20260905212607 82 214 5.0 11.0 0.00 0.00 0.00 83 1010.4
20260905212106 82 214 7.0 10.0 0.00 0.00 0.00 81 1010.3
20260905211607 82 214 8.0 10.0 0.00 0.00 0.00 81 1010.2
20260905211106 82 214 4.0 12.0 0.00 0.00 0.00 82 1010.2
20260905210107 83 214 5.0 11.0 0.00 0.00 0.00 81 1010.3
20260905205606 83 214 3.0 12.0 0.00 0.00 0.00 81 1010.4
20260905205106 83 214 4.0 12.0 0.00 0.00 0.00 81 1010.5
20260905204606 83 214 5.0 10.0 0.00 0.00 0.00 81 1010.4
20260905204106 83 214 4.0 11.0 0.00 0.00 0.00 80 1010.3
20260905203606 83 215 9.0 11.0 0.00 0.00 0.00 81 1010.4
20260905203106 83 215 3.0 13.0 0.00 0.00 0.00 82 1010.3
20260905202106 83 215 6.0 14.0 0.00 0.00 0.00 81 1010.3
20260905201106 83 215 3.0 12.0 0.00 0.00 0.00 81 1010.3
20260905200605 83 215 4.0 12.0 0.00 0.00 0.00 81 1010.3
20260905200105 83 215 7.0 11.0 0.00 0.00 0.00 81 1010.2
20260905195605 83 215 7.0 13.0 0.00 0.00 0.00 81 1010.4
20260905195105 84 215 7.0 13.0 0.00 0.00 0.00 81 1010.3
20260905194605 84 215 6.0 11.0 0.00 0.00 0.00 80 1010.5
20260905194105 84 214 9.0 11.0 0.00 0.00 0.00 80 1010.4
20260905193605 85 215 6.0 11.0 0.00 0.00 0.00 80 1010.5
20260905193105 85 214 4.0 9.0 0.00 0.00 0.00 79 1010.5
20260905192604 85 215 5.0 9.0 0.00 0.00 0.00 78 1010.5
20260905192104 85 214 6.0 8.0 0.00 0.00 0.00 80 1010.5
20260905191604 84 214 3.0 8.0 0.00 0.00 0.00 81 1010.4
20260905191104 84 215 2.0 10.0 0.00 0.00 0.00 80 1010.6
20260905190604 85 214 3.0 10.0 0.00 0.00 0.00 79 1010.6
20260905190104 85 214 5.0 8.0 0.00 0.00 0.00 80 1010.4
20260905185604 85 214 3.0 8.0 0.00 0.00 0.00 79 1010.6
20260905185104 84 215 7.0 10.0 0.00 0.00 0.00 80 1010.6
20260905184604 85 214 8.0 10.0 0.00 0.00 0.00 80 1010.7
20260905184104 84 214 5.0 9.0 0.00 0.00 0.00 81 1010.7
20260905182604 85 214 5.0 8.0 0.00 0.00 0.00 81 1010.7
20260905182104 84 215 3.0 8.0 0.00 0.00 0.00 82 1010.7
20260905181603 85 214 6.0 8.0 0.00 0.00 0.00 79 1010.7
20260905181104 85 214 3.0 7.0 0.00 0.00 0.00 81 1010.7
20260905175603 84 215 5.0 8.0 0.00 0.00 0.00 81 1010.9
20260905175103 84 214 4.0 8.0 0.00 0.00 0.00 80 1011.0
20260905174603 84 214 4.0 7.0 0.00 0.00 0.00 82 1011.0
20260905174103 84 214 5.0 7.0 0.00 0.00 0.00 81 1011.1
20260905173603 84 214 0.0 7.0 0.00 0.00 0.00 81 1011.1
20260905173103 84 214 4.0 7.0 0.00 0.00 0.00 82 1011.0
20260905172603 84 214 3.0 7.0 0.00 0.00 0.00 81 1011.1
20260905172102 84 214 1.0 9.0 0.00 0.00 0.00 82 1011.0
20260905171603 84 214 4.0 9.0 0.00 0.00 0.00 83 1011.1
20260905171102 84 214 3.0 8.0 0.00 0.00 0.00 83 1011.1
20260905170602 84 215 4.0 7.0 0.00 0.00 0.00 82 1011.2
20260905165602 84 214 5.0 8.0 0.00 0.00 0.00 82 1011.1
20260905164602 83 214 6.0 9.0 0.00 0.00 0.00 84 1011.0
20260905164102 83 214 3.0 8.0 0.00 0.00 0.00 85 1011.1
20260905163602 82 214 4.0 8.0 0.00 0.00 0.00 86 1011.1
20260905163102 82 214 3.0 8.0 0.00 0.00 0.00 85 1011.1
20260905162602 82 214 3.0 7.0 0.00 0.00 0.00 87 1011.1
20260905161602 82 214 3.0 8.0 0.00 0.00 0.00 86 1011.2
20260905161102 82 214 4.0 7.0 0.00 0.00 0.00 87 1011.1
20260905160602 81 215 2.0 6.0 0.00 0.00 0.00 87 1011.1
20260905155601 82 214 2.0 8.0 0.00 0.00 0.00 88 1011.3
20260905154101 82 214 6.0 6.0 0.00 0.00 0.00 87 1011.1
20260905153601 81 214 2.0 10.0 0.00 0.00 0.00 87 1011.0
20260905153101 81 214 3.0 10.0 0.00 0.00 0.00 88 1011.0
20260905152601 81 215 3.0 8.0 0.00 0.00 0.00 87 1011.0
20260905151601 80 215 2.0 10.0 0.00 0.00 0.00 89 1010.8
20260905151101 80 215 4.0 10.0 0.00 0.00 0.00 88 1010.6
20260905145601 80 214 5.0 12.0 0.00 0.00 0.00 89 1010.5
20260905145101 81 215 3.0 12.0 0.00 0.00 0.00 89 1010.5
20260905144601 81 214 3.0 10.0 0.00 0.00 0.00 89 1010.5
20260905144101 81 215 4.0 11.0 0.00 0.00 0.00 89 1010.4
20260905143601 81 215 6.0 14.0 0.00 0.00 0.00 89 1010.3
20260905143101 81 215 6.0 14.0 0.00 0.00 0.00 89 1010.2
20260905141600 80 216 5.0 9.0 0.00 0.00 0.00 90 1010.1
20260905141100 80 216 5.0 9.0 0.00 0.00 0.00 90 1010.1
20260905140600 80 216 5.0 7.0 0.00 0.00 0.00 90 1010.0